Powrót do katalogu

STARLINK-36347

AktywnyŁącznośćVLEO
NORAD 68521·PAYLOAD·🇺🇸 United States

Wystrzelony Mar 30, 2026 z Cape Canaveral Space Force Station

Loading…

Następne Przeloty (najbliższe 24 godziny)

TLE

ŚwieżeSource: CelesTrak SupGP

Epoka: Sep 14, 2026, 22:33 UTC

1 68521C 26068P   26257.94006944  .00007602  00000+0  22461-3 0  2571
2 68521  53.1588 327.9112 0001167  87.8251 233.2415 15.34384474    19

Śledź STARLINK-36347 w czasie rzeczywistym z AllMySat

Download on the App Store